• In Hungary
  • List of Countries
  • For 7 days
  • Water Temperature
  • Satellite Maps
  • Weather Map
  • News
  • Weather Widgets
  • user-avatar
    Login

    Hourly Weather Kadeczka

    Today, 20 July, Friday

    Time Temperature Precipitation Wind Pressure Humidity
    00:00 +17°C° 0 mm 2 mps 717 mmHg 97%
    01:00 +17°C° 0 mm 2 mps 717 mmHg 97%
    02:00 +17°C° 0.2 mm 2 mps 717 mmHg 97%
    03:00 +17°C° 0.2 mm 2 mps 717 mmHg 97%
    04:00 +17°C° 0.2 mm 2 mps 717 mmHg 97%
    05:00 +17°C° 0.4 mm 2 mps 717 mmHg 97%
    06:00 +17°C° 0.4 mm 2 mps 717 mmHg 96%
    07:00 +17°C° 0.4 mm 2 mps 718 mmHg 96%
    08:00 +18°C° 0.2 mm 3 mps 718 mmHg 95%
    09:00 +18°C° 0.2 mm 3 mps 718 mmHg 93%
    10:00 +18°C° 0.2 mm 3 mps 718 mmHg 92%
    11:00 +20°C° 0 mm 3 mps 718 mmHg 83%
    12:00 +21°C° 0 mm 3 mps 718 mmHg 75%
    13:00 +24°C° 0 mm 3 mps 718 mmHg 66%
    14:00 +24°C° 0.1 mm 3 mps 718 mmHg 66%
    15:00 +23°C° 0.1 mm 4 mps 718 mmHg 66%
    16:00 +25°C° 0.1 mm 4 mps 718 mmHg 66%
    17:00 +22°C° 0.1 mm 3 mps 718 mmHg 72%
    18:00 +21°C° 0.1 mm 2 mps 718 mmHg 79%
    19:00 +19°C° 0.1 mm 2 mps 718 mmHg 85%
    20:00 +18°C° 0 mm 2 mps 718 mmHg 88%
    21:00 +17°C° 0 mm 2 mps 718 mmHg 90%
    22:00 +16°C° 0 mm 1 mps 718 mmHg 93%
    23:00 +16°C° 0 mm 1 mps 718 mmHg 93%

    Tomorrow, 21 July, Saturday

    Time Temperature Precipitation Wind Pressure Humidity
    00:00 +15°C° 0 mm 1 mps 718 mmHg 94%
    01:00 +15°C° 0 mm 1 mps 718 mmHg 94%
    02:00 +15°C° 0 mm 1 mps 718 mmHg 94%
    03:00 +14°C° 0 mm 1 mps 718 mmHg 94%
    04:00 +14°C° 0 mm 1 mps 718 mmHg 94%
    05:00 +16°C° 0 mm 1 mps 718 mmHg 89%
    06:00 +18°C° 0 mm 1 mps 718 mmHg 83%
    07:00 +20°C° 0 mm 1 mps 718 mmHg 78%
    08:00 +22°C° 0 mm 1 mps 719 mmHg 71%
    09:00 +23°C° 0 mm 1 mps 719 mmHg 64%
    10:00 +25°C° 0 mm 1 mps 719 mmHg 57%
    11:00 +25°C° 0 mm 1 mps 719 mmHg 54%
    12:00 +26°C° 0 mm 1 mps 719 mmHg 51%
    13:00 +27°C° 0 mm 2 mps 719 mmHg 48%
    14:00 +26°C° 0.1 mm 2 mps 718 mmHg 50%
    15:00 +26°C° 0.1 mm 2 mps 718 mmHg 52%
    16:00 +26°C° 0.1 mm 2 mps 718 mmHg 54%
    17:00 +24°C° 0.1 mm 1 mps 718 mmHg 62%
    18:00 +23°C° 0.1 mm 1 mps 718 mmHg 69%
    19:00 +21°C° 0.1 mm 1 mps 717 mmHg 77%
    20:00 +20°C° 0 mm 1 mps 717 mmHg 80%
    21:00 +18°C° 0 mm 1 mps 717 mmHg 84%
    22:00 +16°C° 0 mm 1 mps 717 mmHg 87%
    23:00 +15°C° 0 mm 0 mps 717 mmHg 88%

    Day after tomorrow, 22 July, Sunday

    Time Temperature Precipitation Wind Pressure Humidity
    00:00 +15°C° 0 mm 0 mps 717 mmHg 89%
    01:00 +14°C° 0 mm 0 mps 717 mmHg 90%
    02:00 +14°C° 0 mm 0 mps 717 mmHg 90%
    03:00 +14°C° 0 mm 0 mps 717 mmHg 91%
    04:00 +14°C° 0 mm 0 mps 716 mmHg 91%
    05:00 +15°C° 0 mm 0 mps 717 mmHg 85%
    06:00 +17°C° 0 mm 0 mps 717 mmHg 80%
    07:00 +19°C° 0 mm 0 mps 717 mmHg 74%
    08:00 +22°C° 0.1 mm 1 mps 717 mmHg 71%
    09:00 +23°C° 0.1 mm 1 mps 717 mmHg 68%
    10:00 +24°C° 0.1 mm 2 mps 717 mmHg 65%
    11:00 +24°C° 0.5 mm 2 mps 716 mmHg 67%
    12:00 +25°C° 0.5 mm 2 mps 716 mmHg 69%
    13:00 +25°C° 0.5 mm 2 mps 716 mmHg 71%
    14:00 +24°C° 0.7 mm 2 mps 716 mmHg 72%
    15:00 +24°C° 0.7 mm 2 mps 716 mmHg 73%
    16:00 +24°C° 0.7 mm 2 mps 716 mmHg 74%
    17:00 +23°C° 0.4 mm 2 mps 715 mmHg 77%
    18:00 +22°C° 0.4 mm 1 mps 715 mmHg 80%
    19:00 +21°C° 0.4 mm 1 mps 715 mmHg 83%
    20:00 +20°C° 0 mm 1 mps 715 mmHg 84%
    21:00 +19°C° 0 mm 1 mps 715 mmHg 85%
    22:00 +18°C° 0 mm 1 mps 715 mmHg 86%
    23:00 +16°C° 0 mm 1 mps 715 mmHg 88%

    23 July, Monday

    Time Temperature Precipitation Wind Pressure Humidity
    00:00 +16°C° 0 mm 1 mps 715 mmHg 89%
    01:00 +15°C° 0 mm 1 mps 715 mmHg 90%
    02:00 +15°C° 0 mm 1 mps 715 mmHg 91%
    03:00 +15°C° 0 mm 1 mps 715 mmHg 92%
    04:00 +15°C° 0 mm 1 mps 715 mmHg 93%
    05:00 +16°C° 0 mm 1 mps 715 mmHg 91%
    06:00 +17°C° 0 mm 2 mps 716 mmHg 88%
    07:00 +19°C° 0 mm 2 mps 716 mmHg 85%
    08:00 +20°C° 0.1 mm 3 mps 716 mmHg 79%
    09:00 +21°C° 0.1 mm 3 mps 716 mmHg 72%
    10:00 +23°C° 0.1 mm 4 mps 717 mmHg 65%
    11:00 +23°C° 0.3 mm 4 mps 717 mmHg 66%
    12:00 +23°C° 0.3 mm 4 mps 716 mmHg 66%
    13:00 +25°C° 0.3 mm 4 mps 716 mmHg 66%
    14:00 +23°C° 0.6 mm 4 mps 716 mmHg 69%
    15:00 +23°C° 0.6 mm 4 mps 716 mmHg 72%
    16:00 +24°C° 0.6 mm 3 mps 717 mmHg 75%
    17:00 +22°C° 0.3 mm 3 mps 717 mmHg 79%
    18:00 +20°C° 0.3 mm 2 mps 717 mmHg 82%
    19:00 +19°C° 0.3 mm 2 mps 717 mmHg 86%
    20:00 +19°C° 0 mm 2 mps 717 mmHg 88%
    21:00 +18°C° 0 mm 2 mps 717 mmHg 89%
    22:00 +17°C° 0 mm 2 mps 718 mmHg 91%
    23:00 +16°C° 0 mm 2 mps 718 mmHg 92%

    24 July, Tuesday

    Time Temperature Precipitation Wind Pressure Humidity
    00:00 +16°C° 0 mm 1 mps 718 mmHg 93%
    01:00 +15°C° 0 mm 1 mps 718 mmHg 94%
    02:00 +15°C° 0 mm 1 mps 718 mmHg 94%
    03:00 +15°C° 0 mm 1 mps 718 mmHg 95%
    04:00 +15°C° 0 mm 1 mps 718 mmHg 95%
    05:00 +16°C° 0 mm 1 mps 718 mmHg 92%
    06:00 +18°C° 0 mm 2 mps 719 mmHg 88%
    07:00 +19°C° 0 mm 2 mps 719 mmHg 85%
    08:00 +20°C° 0 mm 2 mps 719 mmHg 78%
    09:00 +22°C° 0 mm 3 mps 719 mmHg 70%
    10:00 +24°C° 0 mm 3 mps 719 mmHg 63%
    11:00 +25°C° 0.1 mm 3 mps 719 mmHg 61%
    12:00 +26°C° 0.1 mm 3 mps 719 mmHg 59%
    13:00 +26°C° 0.1 mm 3 mps 719 mmHg 57%
    14:00 +26°C° 0.1 mm 3 mps 719 mmHg 60%
    15:00 +26°C° 0.1 mm 3 mps 719 mmHg 62%
    16:00 +25°C° 0.1 mm 3 mps 719 mmHg 64%
    17:00 +24°C° 0 mm 2 mps 719 mmHg 70%
    18:00 +23°C° 0 mm 2 mps 719 mmHg 76%
    19:00 +21°C° 0 mm 1 mps 719 mmHg 82%
    20:00 +20°C° 0 mm 1 mps 719 mmHg 84%
    21:00 +19°C° 0 mm 1 mps 719 mmHg 86%
    22:00 +18°C° 0 mm 1 mps 719 mmHg 89%
    23:00 +18°C° 0 mm 1 mps 719 mmHg 89%

    25 July, Wednesday

    Time Temperature Precipitation Wind Pressure Humidity
    00:00 +16°C° 0 mm 1 mps 719 mmHg 90%
    01:00 +16°C° 0 mm 1 mps 720 mmHg 91%
    02:00 +16°C° 0 mm 1 mps 720 mmHg 91%
    03:00 +15°C° 0 mm 1 mps 720 mmHg 92%
    04:00 +15°C° 0 mm 1 mps 720 mmHg 93%
    05:00 +18°C° 0 mm 1 mps 720 mmHg 88%
    06:00 +20°C° 0 mm 1 mps 720 mmHg 83%
    07:00 +21°C° 0 mm 1 mps 721 mmHg 78%
    08:00 +23°C° 0.1 mm 2 mps 721 mmHg 73%
    09:00 +24°C° 0.1 mm 2 mps 721 mmHg 68%
    10:00 +26°C° 0.1 mm 2 mps 721 mmHg 63%
    11:00 +26°C° 0.4 mm 2 mps 721 mmHg 64%
    12:00 +26°C° 0.4 mm 2 mps 721 mmHg 64%
    13:00 +27°C° 0.4 mm 3 mps 721 mmHg 64%
    14:00 +27°C° 0.3 mm 3 mps 721 mmHg 65%
    15:00 +27°C° 0.3 mm 3 mps 720 mmHg 65%
    16:00 +27°C° 0.3 mm 3 mps 720 mmHg 65%
    17:00 +25°C° 0.2 mm 2 mps 720 mmHg 71%
    18:00 +24°C° 0.2 mm 2 mps 720 mmHg 77%
    19:00 +22°C° 0.2 mm 1 mps 720 mmHg 83%
    20:00 +21°C° 0 mm 1 mps 720 mmHg 85%
    21:00 +20°C° 0 mm 1 mps 720 mmHg 87%
    22:00 +19°C° 0 mm 1 mps 721 mmHg 89%
    23:00 +19°C° 0 mm 1 mps 721 mmHg 90%
    Show more